Home > Weather > Pasco > Past weeks

Flag for USA Past Weather in Pasco, Washington, USA — Yesterday and Last 2 Weeks

Now
68 °F

Sunny.


Feels Like: 68 °F
Forecast: 53 / 90 °F
Wind: 5 mph from North

Location: Tri-Cities Airport

Current Time: Aug 25, 2016 at 9:57:59 AM

Latest Report: Aug 25, 2016 at 8:53 AM


Visibility: 10 mi

Pressure: 30.12 "Hg

Humidity: 47%

Dew Point: 47 °F

Location of PascoLocation

Past Weather in Pasco — Graph

°F

Pasco Temperature Yesterday

Maximum temperature yesterday: 89 °F (at 3:53 PM)
Minimum temperature yesterday: 51 °F (at 4:53 AM)
Average temperature yesterday: 70 °F

High & Low Weather Summary for the Past Weeks

 TemperatureHumidityPressure
High99 °F (Aug 13, 3:53 PM)93% (Aug 12, 5:53 AM)30.19 "Hg (Aug 12, 5:53 AM)
Low48 °F (Aug 23, 5:53 AM)12% (Aug 20, 4:53 PM)29.62 "Hg (Aug 21, 5:53 PM)
Average75 °F48%29.94 "Hg
* Reported Aug 10 7:53 AM — Aug 25 7:53 AM, Pasco, Weather by CustomWeather, © 2016

Note: Actual official high and low records may vary slightly from our data, if they occured in-between our weather recording intervals... More about our weather records

Advertising

Pasco Weather History for the Previous 24 Hours

Scroll right to see more
 ConditionsComfort  
Time TempWeatherWind HumidityBarometerVisibility
7:53 AM
Thu, Aug 25
63 °FSunny.5 mph56%30.12 "Hg10 mi
6:53 AM56 °FClear.No wind75%30.12 "Hg10 mi
5:53 AM58 °FClear.6 mph67%30.10 "Hg10 mi
4:53 AM60 °FClear.5 mph60%30.08 "Hg10 mi
3:53 AM54 °FClear.5 mph77%30.09 "Hg10 mi
2:53 AM57 °FClear.3 mph69%30.08 "Hg10 mi
1:53 AM60 °FClear.5 mph62%30.07 "Hg10 mi
12:53 AM59 °FClear.7 mph64%30.07 "Hg10 mi
11:53 PM
Wed, Aug 24
65 °FClear.5 mph56%30.07 "Hg10 mi
10:53 PM64 °FClear.No wind65%30.07 "Hg10 mi
9:53 PM63 °FClear.7 mph70%30.07 "Hg10 mi
8:53 PM67 °FClear.7 mph61%30.06 "Hg10 mi
7:53 PM74 °FSunny.9 mph50%30.06 "Hg10 mi
6:53 PM82 °FPassing clouds.8 mph34%30.06 "Hg10 mi
5:53 PM86 °FSunny.13 mph27%30.06 "Hg10 mi
4:53 PM87 °FSunny.12 mph27%30.07 "Hg10 mi
3:53 PM89 °FSunny.10 mph26%30.08 "Hg10 mi
2:53 PM87 °FSunny.10 mph29%30.10 "Hg10 mi
1:53 PM86 °FSunny.9 mph29%30.12 "Hg10 mi
12:53 PM83 °FSunny.9 mph34%30.14 "Hg10 mi
11:53 AM80 °FSunny.7 mph35%30.16 "Hg10 mi
10:53 AM75 °FSunny.7 mph40%30.18 "Hg10 mi
9:53 AM73 °FSunny.9 mph41%30.19 "Hg10 mi
Weather by CustomWeather, © 2016

See weather overviewHow to use our weather pages